#timestamp,LO_Frequency,Hit,StdDev 
1675101615.3,286047002.1,N
1675101635.1,286047001.6,N
1675101655.9,286046998.5,N
1675101675.7,286047001.4,N
1675101695.5,286046999.7,N
1675101715.4,286047000.0,N
1675101735.2,286046998.7,N
1675101755.0,286046997.0,N
1675101755.9,286046997.0,N
1675101775.8,286046999.4,N
1675101795.6,286047000.1,N
1675101815.5,286047004.3,N
1675101835.3,286047001.5,N
1675101855.1,286046999.9,N
1675101875.9,286047000.0,N
1675101895.7,286046999.0,N
1675101915.6,286046995.0,N
1675101935.4,286046999.3,N
1675101955.2,286047000.8,N
1675101975.1,286047002.6,N
1675101976.0,286047002.6,N
1675101995.8,286047001.7,N
1675102015.7,286047001.7,N
1675102035.5,286047003.9,N
1675102055.3,286047001.0,N
1675102075.2,286046998.3,N
1675102095.0,286046999.6,N
1675102095.9,286046999.6,N
1675102115.8,286046998.6,N
1675102135.6,286047000.1,N
1675102155.4,286047003.2,N
1675102175.3,286047004.1,N
1675102195.1,286047003.4,N
1675102215.8,286047001.4,N
1675102235.7,286047000.9,N
1675102255.5,286047000.5,N
1675102275.4,286046998.2,N
1675102295.2,286047000.5,N
1675102315.0,286047002.1,N
1675102316.0,286047002.1,N
1675102335.8,286047002.5,N
1675102355.6,286046999.8,N
1675102375.5,286047001.0,N
1675102395.3,286047002.2,N
1675102415.1,286047004.1,N
1675102435.9,286047005.8,N
1675102455.7,286047003.3,N
1675102475.6,286047004.2,N
1675102495.4,286047002.4,N
1675102515.2,286047001.5,N
1675102535.1,286047001.7,N
1675102536.0,286047001.7,N
1675102555.8,286047000.2,N
1675102575.7,286047002.7,N
1675102595.5,286047001.3,N
1675102615.3,286046999.9,N
1675102635.2,286047001.2,N
1675102655.0,286047000.6,N
1675102655.9,286047000.6,N
1675102675.8,286046999.0,N
1675102695.6,286046999.7,N
1675102715.4,286047003.9,N
1675102735.3,286047004.2,N
1675102755.1,286047001.3,N
1675102775.9,286047003.8,N
1675102795.7,286047003.0,N
1675102815.5,286047003.0,N
1675102835.4,286047003.9,N
1675102855.2,286047004.3,N
1675102875.0,286047003.2,N
1675102875.9,286047003.2,N
1675102895.8,286046999.7,N
1675102915.6,286047001.7,N
1675102935.4,286047004.0,N
1675102955.3,286047002.0,N
1675102975.1,286047000.2,N
1675102995.9,286046999.0,N
1675103015.7,286046997.1,N
1675103035.5,286046995.3,N
1675103055.4,286046998.9,N
1675103075.2,286046998.7,N
1675103095.0,286046998.0,N
1675103096.0,286046998.0,N
1675103115.8,286046995.1,N
1675103135.6,286046995.5,N
1675103155.5,286046998.0,N
1675103175.3,286046995.0,N
1675103195.1,286046996.7,N
1675103215.9,286046996.8,N
1675103235.7,286046999.6,N
1675103255.6,286046997.4,N
1675103275.4,286046995.6,N
1675103295.2,286046998.8,N
1675103315.1,286047000.4,N
1675103316.0,286047000.4,N
1675103335.8,286047000.2,N
1675103355.6,286047001.8,N
1675103375.5,286047001.7,N
1675103395.3,286047004.2,N
1675103415.2,286047004.6,N
1675103435.9,286047006.1,N
1675103455.7,286047006.1,N
1675103475.6,286047006.2,N
1675103495.4,286047008.4,N
1675103515.2,286047007.0,N
1675103535.1,286047004.8,N
1675103536.0,286047004.8,N
1675103555.8,286047005.0,N
1675103575.7,286047005.2,N
1675103595.5,286047006.8,N
1675103615.3,286047002.9,N
1675103635.2,286047004.4,N
1675103655.0,286047004.0,N
1675103655.9,286047004.0,N
1675103675.7,286046999.4,N
1675103695.6,286046998.6,N
1675103715.4,286046997.6,N
1675103735.3,286046995.4,N
1675103755.1,286046994.9,N
1675103775.8,286046999.1,N
1675103795.7,286046995.7,N
1675103815.5,286046993.5,N
1675103835.4,286046993.7,N
1675103855.2,286046995.0,N
1675103875.0,286047001.2,N
1675103875.9,286047001.2,N
1675103895.8,286046999.8,N
1675103915.6,286047002.6,N
1675103935.4,286046999.7,N
1675103955.3,286047002.4,N
1675103975.1,286047000.3,N
1675103995.9,286046999.9,N
1675104015.7,286046999.7,N
1675104035.5,286046998.6,N
1675104055.4,286046996.5,N
1675104075.2,286047000.5,N
1675104095.0,286047002.4,N
1675104095.9,286047002.4,N
1675104115.8,286047000.3,N
1675104135.6,286047000.5,N
1675104155.5,286047002.3,N
1675104175.3,286047002.6,N
1675104195.1,286047003.8,N
1675104215.9,286047005.6,N
1675104235.7,286047004.7,N
1675104255.6,286047001.3,N
1675104275.4,286047004.3,N
1675104295.2,286047001.8,N
1675104315.1,286047004.2,N
1675104316.0,286047004.2,N
1675104335.8,286047005.5,N
1675104355.6,286047004.6,N
1675104375.5,286047005.3,N
1675104395.3,286047005.8,N
1675104415.1,286047003.9,N
1675104435.9,286047000.0,N
1675104455.7,286046996.5,N
1675104475.6,286046995.2,N
1675104495.4,286046997.6,N
1675104515.2,286046998.6,N
1675104535.1,286047000.7,N
1675104536.0,286047000.7,N
1675104555.8,286047001.8,N
1675104575.6,286047001.0,N
1675104595.5,286047002.2,N
1675104615.3,286047006.0,N
1675104635.2,286047005.6,N
1675104655.9,286047003.6,N
1675104675.7,286047002.0,N
1675104695.6,286047004.0,N
1675104715.4,286047001.6,N
1675104735.2,286047001.7,N
1675104755.1,286047003.9,N
1675104756.0,286047003.9,N
1675104775.8,286047001.9,N
1675104795.7,286047001.3,N
1675104815.5,286047003.1,N
1675104835.3,286047003.1,N
1675104855.2,286047005.8,N
1675104875.0,286047005.6,N
1675104875.9,286047005.6,N
1675104895.8,286047002.6,N
1675104915.6,286047002.3,N
1675104935.4,286047004.2,N
1675104955.3,286047005.4,N
1675104975.1,286047004.3,N
1675104995.9,286047001.1,N
1675105015.7,286047002.7,N
1675105035.5,286047000.9,N
1675105055.4,286046998.9,N
1675105075.2,286046998.8,N
1675105095.1,286047000.5,N
1675105096.0,286047000.5,N
1675105115.8,286047000.9,N
1675105135.6,286047000.1,N
1675105155.5,286047002.5,N
1675105175.3,286047001.9,N
1675105195.1,286047001.0,N
